Regional Weather Roundup
Issued by NWS

Home | Current Version | Previous Version | Text Only | Print | Product List | Glossary Off
Versions: 1 2 3 4 5 6 7 8 9 10 11 12 13 14 15 16 17 18 19 20 21 22 23 24 25 26 27

000
ASUS45 KBOU 262207
RWRCO

WEATHER ROUNDUP FOR COLORADO
NATIONAL WEATHER SERVICE DENVER/BOULDER CO
400 PM MDT TUE JUL 26 2016

NOTE: "FAIR" INDICATES FEW OR NO CLOUDS BELOW 12000 FEET WITH NO
SIGNIFICANT WEATHER AND/OR OBSTRUCTIONS TO VISIBILITY.

COZ001>005-013-030-031-262300-
...NORTHWEST COLORADO...

CITY           SKY/WX    TMP DP  RH WIND       PRES   REMARKS
CRAIG          CLOUDY    77  39  25 VRB5      30.26R
HAYDEN         PTSUNNY   77  34  20 SW6G28    30.28R
MEEKER         FAIR      83  41  22 SW15G23   30.22F
MOUNT WERNER   NOT AVBL
STEAMBOAT SPGS FAIR      82  34  18 W14       30.24R
WALDEN         FAIR      77  25  14 NE6       30.36S
$$

COZ006>008-011-262300-
...WEST CENTRAL VALLEYS...

CITY           SKY/WX    TMP DP  RH WIND       PRES   REMARKS
GRAND JUNCTION FAIR      97  38  13 VRB7      30.06F
MONTROSE       FAIR      90  39  16 W7        30.18F
EAGLE          PTSUNNY   82  34  17 MISG      30.27S
RIFLE          FAIR      86  36  16 NW13G28   30.15F
DELTA          FAIR      93  40  16 S5        30.13F
NUCLA          FAIR     N/A N/A N/A N7        30.23S
$$

COZ017>023-064>068-262300-
...SOUTHWEST COLORADO...

CITY           SKY/WX    TMP DP  RH WIND       PRES   REMARKS
DURANGO        CLOUDY    83  42  23 NE16      30.23S
CORTEZ         FAIR      91  43  18 W7        30.16F
PAGOSA SPRINGS CLOUDY    62  53  72 NE5       30.39F
TELLURIDE      FAIR      75  39  27 NW5       30.47F
WOLF CREEK PAS LGT RAIN  45  41  87 NE20      30.73R
$$

COZ009-010-012-014-032>034-037-058>063-262300-
...CENTRAL COLORADO...

CITY           SKY/WX    TMP DP  RH WIND       PRES   REMARKS
ASPEN          PTSUNNY   79  36  21 SE8       30.35F
BUENA VISTA    CLOUDY    77  34  21 NE14      30.38S
COPPER MTN     CLOUDY    64  25  22 CALM      30.72F
BERTHOUD PASS  PTSUNNY   54  37  54 E5        30.74F
COTTONWOOD PAS CLOUDY    72  32  23 E3        30.54F
GUNNISON       FAIR      81  39  22 NW16G23   30.37F
KREMMLING      FAIR      79  18  10 W5        30.32F
LEADVILLE        N/A     65  25  22 W7        30.53F
MONARCH PASS   CLOUDY    55  32  41 MISG      30.81R
SALIDA         PTSUNNY   82  33  17 W5        30.40F
SUNLIGHT       CLOUDY    61  37  41 MISG      30.64S
WILKERSON PASS PTSUNNY   61  32  33 S3        30.68F
$$

COZ069>075-262300-
...SAN LUIS VALLEY/SANGRE DE CRISTO MOUNTAINS...

CITY           SKY/WX    TMP DP  RH WIND       PRES   REMARKS
ALAMOSA        FAIR      77  41  27 NW15      30.31F
LA VETA PASS   DRIZZLE   63  39  42 NE5       30.56R
SAGUACHE       PTSUNNY   77  39  25 W7        30.36F
$$

COZ035-036-038>040-262300-
...NORTHERN COLORADO FRONT RANGE...

CITY           SKY/WX    TMP DP  RH WIND       PRES   REMARKS
DENVER INTL AP CLOUDY    92  35  13 NE8       30.12F
DMNS CITY PARK   N/A     87  40  18 SW3       30.12S
AURORA         PTSUNNY   90  35  14 E3        30.15F
FRONT RANGE AP PTSUNNY   91  34  13 NW3G17    30.15S
ERIE MUNI ARPT FAIR      90  35  14 NW13G23   30.13R
BOULDER MUN AP PTSUNNY   86  36  16 NE8G30    30.13S
CENTENNIAL     CLOUDY    87  32  14 S13       30.17F
BROOMFIELD     NOT AVBL
LONGMONT       FAIR      88  35  15 S15G29    30.13F
$$

COZ041-046-047-076>085-087-088-262300-
...PIKES PEAK/PALMER DIVIDE AND SOUTHERN FOOTHILLS...

CITY           SKY/WX    TMP DP  RH WIND       PRES   REMARKS
COLO. SPRINGS  PTSUNNY   79  45  29 W15       30.24R
A. F. ACADEMY  FAIR      81  41  24 W13G22    30.25F
SCHRIEVER AFB  NOT AVBL
ELLICOTT       FAIR     N/A N/A N/A NE20G25   30.20F
FALCON         NOT AVBL
FORT CARSON    PTSUNNY   84  41  21 NW20      30.19F
LIMON          NOT AVBL
MONUMENT HILL  FAIR      77  41  27 SW7       30.31F
TRINIDAD       NOT AVBL
$$

COZ042>045-048>051-090-091-262300-
...NORTHEAST COLORADO...

CITY           SKY/WX    TMP DP  RH WIND       PRES   REMARKS
GREELEY ARPT   FAIR      86  55  35 NW7       30.10R
AKRON          PTSUNNY   85  55  35 S12       30.07R
BURLINGTON     FAIR      91  59  33 SE21      30.05F
WRAY           NOT AVBL
STERLING       FAIR      93  52  24 SE5       29.99S
HOLYOKE        FAIR      95  64  36 W12       30.01S
FORT MORGAN    FAIR      89  54  30 SE5       30.06R
$$

COZ086-089-092>099-262300-
...SOUTHEAST COLORADO...

CITY           SKY/WX    TMP DP  RH WIND       PRES   REMARKS
PUEBLO         FAIR      92  51  24 CALM      30.08R
LA JUNTA       FAIR      96  53  23 NE10      30.02F
LAMAR          FAIR      96  57  27 E13G24    29.98F
SPRINGFIELD      N/A     94  54  25 SE12G22   30.05F
$$




USA.gov is the U.S. government's official web portal to all federal, state and local government web resources and services.